EHI
0 0 0 0 0 0 0 0 0 0 0 0 0 0 0 0 0 1 5 11 18 24 30 39 51 62 72 80 86 89 94 96 90 79 66 52 37 22 12 4 0 0 0 0
0 0 0 0 0 0 0 0 0 0 0 0 0 0 0 0 0 1 4 9 17 25 33 44 56 67 75 81 85 89 93 93 86 73 59 44 28 15 8 4 1 0 0 0
0 0 0 0 0 0 0 0 0 0 0 0 0 0 0 0 0 0 3 9 20 31 41 52 63 72 79 83 87 88 87 86 77 62 47 33 19 9 4 2 1 0 0 0
0 0 0 0 0 0 0 0 0 0 0 0 0 0 0 0 0 0 3 10 23 37 49 59 67 74 81 85 86 83 77 71 62 49 35 24 15 6 2 1 0 0 0 0
0 0 0 0 0 0 0 0 0 0 0 0 0 0 0 0 0 0 2 8 22 40 56 66 72 77 82 83 80 72 63 53 43 33 24 17 10 4 1 0 0 0 0 0
0 0 0 0 0 0 0 0 0 0 0 0 0 0 0 0 1 2 5 11 25 44 61 72 78 82 84 79 70 60 50 38 28 22 17 11 5 1 0 0 0 0 0 0
0 0 0 0 0 0 0 0 0 0 0 0 0 0 0 2 5 9 13 22 37 53 67 76 82 83 80 70 57 45 35 26 19 14 11 6 2 0 0 0 0 0 0 0
0 0 0 0 0 0 0 0 0 0 0 0 0 0 1 6 14 22 30 41 53 63 71 75 76 72 63 50 38 27 19 14 10 6 4 2 0 0 0 0 0 0 0 0
0 0 0 0 0 0 0 0 0 0 0 0 0 0 2 7 19 30 41 53 61 64 64 60 55 47 36 26 18 12 8 6 3 1 1 0 0 0 0 0 0 0 0 0
0 0 0 0 0 0 0 0 0 0 0 0 0 0 1 5 14 22 30 38 46 49 46 39 30 22 15 10 7 5 3 2 0 0 0 0 0 0 0 0 0 0 0 0
0 0 0 0 0 0 0 0 0 0 0 0 0 0 1 4 8 10 11 15 21 25 23 19 14 9 6 5 3 2 1 0 0 0 0 0 0 0 0 0 0 0 0 0
0 0 0 0 0 0 0 0 0 0 0 0 0 1 3 5 7 7 5 5 8 9 7 6 5 4 2 1 1 1 0 0 0 0 0 0 0 0 0 0 0 0 0 0
0 0 0 0 0 0 0 0 0 0 0 0 0 1 4 6 7 7 5 5 4 3 1 0 1 1 0 0 0 0 0 0 0 0 0 0 0 0 0 0 0 0 0 0
0 0 0 0 0 0 0 0 0 0 0 0 0 2 4 5 4 4 4 4 2 0 0 0 0 0 0 0 0 0 0 0 0 0 0 0 0 0 0 0 0 0 0 0
0 0 0 0 0 0 0 0 0 0 0 0 1 2 3 3 3 1 1 2 1 0 0 0 0 0 0 0 0 0 0 0 0 0 0 0 0 0 0 0 0 0 0 0
0 0 0 0 0 0 0 0 0 0 0 0 1 3 3 3 2 1 0 0 0 0 0 0 0 0 0 0 0 0 0 0 0 0 0 0 0 0 0 0 0 0 0 0
0 0 0 0 0 0 0 0 0 0 0 0 1 2 2 2 1 0 0 0 0 0 0 0 0 0 0 0 0 0 0 0 0 0 0 0 0 0 0 0 0 0 0 0
0 0 0 0 0 0 0 0 0 0 0 0 1 1 1 1 0 0 0 0 0 0 0 0 0 0 0 0 0 0 0 0 0 0 0 0 0 0 0 0 0 0 0 0
0 0 0 0 0 0 0 0 0 0 0 0 0 0 0 0 0 0 0 0 0 0 0 0 0 0 0 0 0 0 0 0 0 0 0 0 0 0 0 0 0 0 0 0
0 0 0 0 0 0 0 0 0 0 0 0 0 0 0 0 0 0 0 0 0 0 0 0 0 0 0 0 0 0 0 0 0 0 0 0 0 0 0 0 0 0 0 0
0 0 0 0 0 0 0 0 0 0 0 0 0 0 0 0 0 0 0 0 0 0 0 0 0 0 0 0 0 0 0 0 0 0 0 0 0 0 0 0 0 0 0 0
0 0 0 0 0 0 0 0 0 0 0 0 0 0 0 0 0 0 0 0 0 0 0 0 0 0 0 0 0 0 0 0 0 0 0 0 0 0 0 0 0 0 0 0
0 0 0 0 0 0 0 0 0 0 0 0 0 0 0 0 0 0 0 0 0 0 0 0 0 0 0 0 0 0 0 0 0 0 0 0 0 0 0 0 0 0 0 0
0 0 0 0 0 0 0 0 0 0 0 0 0 0 0 0 0 0 0 0 0 0 0 0 0 0 0 0 0 0 0 0 0 0 0 0 0 0 0 0 0 0 0 0
0 0 0 0 0 0 0 0 0 0 0 0 0 0 0 0 0 0 0 0 0 0 0 0 0 0 0 0 0 0 0 0 0 0 0 0 0 0 0 0 0 0 0 0
0 0 0 0 0 0 0 0 0 0 0 0 0 0 0 0 0 0 0 0 0 0 0 0 0 0 0 0 0 0 0 0 0 0 0 0 0 0 0 0 0 0 0 0
Wind_Speed
5 4 6 8 7 7 4 6 9 13 11 6 9 12 15 12 8 9 12 14 14 15 15 13 15 16 15 14 15 15 15 13 11 8 7 7 5 4 4 4 5 6 7 7
2 7 11 8 6 6 7 9 12 13 11 5 6 9 10 9 9 13 15 15 15 13 11 13 14 15 16 16 15 13 13 13 11 8 5 5 6 5 5 4 5 6 7 7
11 9 7 7 7 8 10 10 14 13 13 6 3 8 8 8 4 6 10 12 13 15 17 17 16 15 14 14 14 13 12 11 9 9 8 8 6 5 4 4 4 5 7 8
8 11 8 8 11 10 12 13 12 12 7 6 1 4 10 7 6 5 7 7 10 11 13 15 15 14 14 12 10 10 9 9 9 9 9 10 7 5 4 4 4 5 6 7
8 8 11 12 16 13 14 14 8 5 3 3 4 1 10 6 7 9 8 9 9 10 12 13 13 13 11 10 10 10 10 10 9 9 10 9 7 6 6 6 7 6 5 6
10 7 8 12 14 12 11 4 3 5 5 2 5 2 9 6 8 8 6 4 6 8 10 10 9 10 10 10 10 9 10 9 8 9 9 10 11 10 10 8 6 5 4 4
9 11 8 6 7 8 3 5 4 4 4 6 5 2 9 10 8 6 4 1 3 8 10 12 12 12 11 11 10 9 11 9 8 9 8 9 10 10 10 8 7 6 4 4
7 10 8 7 9 8 5 11 10 6 5 6 4 4 6 7 6 5 7 8 11 12 12 12 12 12 11 11 9 9 10 9 8 9 8 8 9 7 6 6 6 6 5 4
9 9 8 8 8 9 6 6 10 9 5 2 5 5 4 8 12 13 14 14 13 13 14 13 13 12 11 10 10 9 10 9 9 9 9 8 8 7 7 7 6 5 5 5
8 6 6 4 2 2 9 9 7 7 6 4 4 2 3 5 7 10 11 12 12 13 13 13 11 11 10 9 9 9 9 9 8 8 7 8 7 8 7 7 7 6 5 5
4 6 6 3 1 2 1 2 5 6 7 8 3 2 3 1 4 8 9 10 11 12 11 10 9 9 10 9 9 9 9 9 8 8 8 9 7 7 8 7 7 6 5 5
3 5 3 4 3 2 2 2 6 6 5 6 6 2 5 4 5 8 10 10 10 10 9 9 9 8 8 8 8 8 8 9 8 8 8 8 8 8 8 7 6 6 5 4
3 5 3 6 8 8 5 5 2 4 4 3 5 3 5 6 10 9 10 10 10 9 9 8 8 8 8 7 8 8 8 8 8 8 9 9 9 8 8 7 6 6 5 5
4 5 4 2 1 4 5 5 4 4 4 2 4 7 4 6 9 10 10 10 9 9 9 9 8 8 8 8 8 9 8 8 9 9 10 9 8 8 7 7 7 6 6 5
5 3 2 0 2 4 5 7 4 2 4 7 8 8 4 5 7 8 9 10 10 10 9 9 8 8 8 8 8 9 9 8 9 10 10 8 7 7 7 7 6 6 6 5
5 3 4 6 7 6 6 8 4 5 5 12 14 9 6 7 8 10 9 9 10 9 9 9 9 9 8 8 9 9 9 8 9 9 8 7 7 7 7 6 5 5 5 5
2 2 3 3 6 5 7 8 6 8 6 7 6 8 10 10 11 9 8 8 9 8 8 9 8 8 8 8 8 9 8 8 9 8 7 7 6 6 6 5 5 5 5 5
2 2 2 1 4 2 1 7 14 15 13 11 13 12 11 12 11 10 8 7 8 8 8 8 8 9 9 8 8 8 8 8 8 7 6 5 5 5 5 5 5 4 3 3
3 5 3 3 1 1 2 5 2 6 8 7 10 12 13 14 11 8 7 7 7 8 8 8 8 8 8 8 7 8 7 6 6 5 4 4 4 5 4 4 3 2 2 2
5 4 5 3 2 2 1 7 3 10 5 2 5 8 10 8 3 4 5 7 8 8 7 8 8 8 8 6 6 7 6 5 4 4 3 3 4 4 4 3 2 2 2 1
5 4 3 3 2 1 4 8 4 4 3 1 3 5 5 3 5 9 9 8 8 8 8 7 7 6 5 4 5 5 4 3 3 3 3 3 3 3 3 3 2 3 3 3
1 1 1 1 2 3 6 5 4 3 2 4 5 6 10 12 12 11 10 9 8 8 7 6 6 5 3 3 4 4 3 2 3 3 3 3 3 3 4 4 3 4 4 4
0 3 2 2 3 0 3 4 2 3 4 3 4 8 12 12 11 11 9 8 7 6 5 4 5 4 2 2 3 3 2 2 2 2 3 3 3 3 4 4 4 3 3 3
3 0 4 3 3 2 4 5 5 4 4 5 7 9 11 13 12 10 8 7 5 4 4 3 3 3 2 1 1 1 1 2 2 3 3 3 3 3 3 3 3 3 2 2
3 1 3 4 4 4 4 4 5 6 7 9 9 10 11 13 12 9 7 6 5 3 3 3 3 3 2 1 1 1 2 3 3 3 3 3 3 3 2 2 2 2 1 2
2 2 4 5 6 5 4 3 6 7 8 9 11 11 9 10 10 8 6 5 4 4 3 3 3 3 3 3 3 2 2 4 4 3 3 2 2 2 2 2 1 1 2 2
Wind_Direction
202 147 212 224 208 199 227 266 275 277 282 288 270 265 268 260 229 207 196 195 200 205 203 190 184 183 180 179 176 178 171 169 161 156 151 143 136 123 104 94 98 101 101 98
235 235 223 217 230 236 246 261 272 284 282 258 272 279 273 262 221 200 192 194 197 197 194 191 184 181 181 179 177 176 171 167 164 158 147 126 118 104 90 82 75 84 92 94
205 233 219 217 238 241 248 236 249 258 283 309 317 315 314 300 268 209 194 195 195 189 186 187 181 180 176 177 175 174 170 161 151 138 124 114 100 89 87 86 79 80 94 93
230 237 237 227 235 228 251 240 234 244 257 282 322 286 293 292 307 273 249 230 209 196 185 181 176 173 173 171 159 153 144 134 129 128 135 140 137 134 132 124 112 94 93 100
234 220 216 231 239 231 235 246 235 235 225 316 338 303 284 305 295 280 261 242 218 195 180 175 169 164 155 145 136 130 122 119 124 130 138 133 123 119 122 119 115 106 99 104
238 246 211 222 240 233 226 223 22 48 68 325 272 256 286 274 253 269 280 241 200 180 158 144 131 122 114 110 111 116 118 115 123 125 127 133 135 136 136 133 131 125 113 105
268 272 259 242 267 274 187 113 36 349 0 261 269 239 258 275 273 248 249 253 124 129 126 124 120 113 108 104 104 106 107 104 105 109 115 128 133 136 141 143 142 136 125 118
222 265 254 231 215 224 208 149 160 190 219 269 314 234 269 310 353 43 70 77 82 92 101 105 104 102 101 98 96 98 101 101 101 104 107 111 116 120 125 129 131 134 133 130
198 240 254 242 222 177 179 184 175 152 184 240 279 277 331 17 43 53 68 75 79 88 93 92 90 91 93 93 90 94 98 98 98 101 104 105 107 110 114 115 112 117 125 129
184 238 277 287 302 250 179 166 113 130 165 227 271 316 327 358 46 60 73 85 89 91 94 95 96 97 93 93 96 95 98 100 99 100 102 103 99 100 104 106 105 106 108 108
174 200 284 355 75 285 360 145 135 142 158 163 187 295 351 7 88 90 89 96 102 102 102 102 101 100 100 100 101 103 102 100 96 94 97 97 94 96 97 97 98 97 95 99
15 134 243 265 274 259 138 178 149 157 207 162 146 181 4 31 65 88 98 101 99 99 99 101 100 96 93 95 97 98 97 97 96 97 95 91 88 88 87 86 84 84 82 77
40 80 47 350 1 6 27 14 37 118 121 142 139 143 21 36 55 62 85 94 96 94 90 85 83 85 86 88 89 90 90 93 93 92 90 85 81 79 76 74 71 68 66 58
77 81 119 151 281 316 331 347 28 84 108 112 128 123 46 49 65 64 70 79 84 86 88 86 83 82 82 82 84 86 83 84 87 84 82 78 76 78 75 66 59 53 54 57
67 79 53 326 330 353 340 339 355 44 153 143 136 118 96 73 75 73 77 82 85 86 89 93 91 90 89 86 82 82 80 79 84 84 82 77 71 66 63 60 56 54 57 66
38 65 37 2 357 0 3 353 22 50 99 126 122 112 108 91 79 70 69 79 82 85 88 95 96 96 94 93 92 88 84 81 81 80 77 74 68 65 65 62 57 58 57 63
15 66 64 342 335 17 6 353 70 67 47 132 130 128 126 94 72 60 56 69 77 82 85 91 93 90 87 84 88 89 87 84 80 78 74 71 70 67 65 69 63 63 64 69
151 97 111 49 34 51 66 55 79 74 50 65 94 112 113 103 84 62 54 68 75 80 85 87 91 92 89 88 85 86 84 84 83 79 74 73 76 76 73 73 68 65 69 75
160 141 118 104 121 260 47 17 13 104 63 57 103 120 129 128 103 69 54 68 78 83 87 89 92 95 93 90 89 89 84 84 88 86 81 84 90 90 87 79 69 61 68 58
34 92 113 115 142 224 319 327 1 107 94 39 126 147 164 175 135 122 104 95 91 90 92 95 94 93 91 88 90 92 90 88 91 91 90 93 104 105 97 84 62 44 64 57
9 27 83 137 175 249 319 319 8 116 155 66 118 144 149 129 118 125 120 106 100 97 95 94 93 93 94 95 94 94 97 103 112 107 99 100 114 114 101 78 56 51 47 39
32 27 26 136 184 241 331 25 69 135 113 96 102 110 114 114 116 119 118 115 110 105 96 93 93 90 89 95 97 96 105 126 124 112 99 98 109 112 102 84 60 51 53 43
167 198 177 154 175 126 35 79 79 115 114 111 120 128 128 124 124 123 121 119 116 111 105 98 102 97 83 90 107 116 161 161 133 113 113 111 96 84 92 91 79 59 50 46
310 41 107 101 110 91 67 64 55 74 97 109 124 130 129 126 128 126 124 123 122 119 120 115 105 102 95 99 120 168 189 154 132 134 137 128 114 98 85 88 96 89 66 46
276 29 90 108 136 104 63 71 88 88 97 105 110 119 126 127 130 130 130 136 138 136 133 125 120 119 119 101 86 93 104 111 115 126 132 138 140 137 121 111 127 132 162 170
279 163 163 189 187 156 155 138 119 117 119 122 120 116 120 127 131 133 136 143 143 140 134 126 124 121 113 103 90 80 93 107 113 114 129 144 147 148 143 134 87 206 196 200